Regional Weather Roundup
Issued by NWS Little Rock, AR

Home | Current Version | Previous Version | Graphics & Text | Print | Product List | Glossary On
Versions: 1 2 3 4 5 6 7 8 9 10 11 12 13 14 15 16 17 18 19 20 21 22 23 24 25 26 27 28 29 30 31
000
ASUS44 KLZK 210805
RWRLZK

WEATHER ROUNDUP FOR ARKANSAS
NATIONAL WEATHER SERVICE LITTLE ROCK AR
300 AM CDT MON AUG 21 2017

NOTE: "FAIR" INDICATES FEW OR NO CLOUDS BELOW 12,000 FEET WITH NO
SIGNIFICANT WEATHER AND/OR OBSTRUCTIONS TO VISIBILITY.

ARZ001-003-010-029-210900-
NORTHWEST ARKANSAS

CITY           SKY/WX    TMP DP  RH WIND       PRES   REMARKS
FAYETTEVILLE   CLEAR     70  70 100 CALM      30.10F
FORT SMITH     CLEAR     75  72  90 NE5       30.07S
HARRISON       CLEAR     77  73  87 S6        30.11F
BENTONVILLE    CLEAR     75  68  78 S6        30.09F
ROGERS         CLOUDY    76  70  82 S8        30.09F
SILOAM SPGS    CLEAR     75  68  78 SW5       30.09S
HIGHFILL       PTCLDY    74  71  91 S8        30.09F
$$

ARZ004-005-016-210900-
NORTH CENTRAL ARKANSAS

CITY           SKY/WX    TMP DP  RH WIND       PRES   REMARKS
BATESVILLE     CLEAR     73  72  94 CALM      30.08F
FLIPPIN        CLEAR     73  68  83 CALM      30.06F
MTN HOME       CLEAR     74  74 100 S3        30.08F
$$

ARZ040-041-210900-
WEST CENTRAL ARKANSAS

CITY           SKY/WX    TMP DP  RH WIND       PRES   REMARKS
MENA           CLEAR     73  72  94 CALM      30.12F
MOUNT IDA      CLEAR     74  71  91 CALM      30.08F
$$

ARZ009-017-025-026-028-210900-
NORTHEAST ARKANSAS

CITY           SKY/WX    TMP DP  RH WIND       PRES   REMARKS
JONESBORO      CLEAR     75  75 100 SW5       30.07F
NEWPORT        PTCLDY    72  72 100 CALM      30.08F FOG
WALNUT RIDGE   CLEAR     73  70  88 S3        30.07S
BLYTHEVILLE    CLEAR     77  76  96 CALM      30.08S
$$

ARZ022-023-033-042-044-210900-
CENTRAL ARKANSAS

CITY           SKY/WX    TMP DP  RH WIND       PRES   REMARKS
LITTLE ROCK    CLEAR     77  77 100 CALM      30.08F
N LITTLE ROCK    N/A     79  76  90 CALM      30.08F
JACKSONVILLE   CLEAR     78  78  99 E3        30.08F
CONWAY           N/A     77  75  94 CALM      30.07S
SEARCY         CLEAR     75  75 100 CALM      30.09F
HOT SPRINGS    CLEAR     77  76  96 CALM      30.10S
RUSSELLVILLE   CLEAR     76  76 100 CALM      30.08S
CLINTON        FAIR      73  73 100 CALM      30.10F FOG
$$

ARZ036-210900-
EAST ARKANSAS

CITY           SKY/WX    TMP DP  RH WIND       PRES   REMARKS
WEST MEMPHIS   CLEAR     75  74  96 S3        30.07F
$$

ARZ050-053-066-070-073-210900-
SOUTHWEST ARKANSAS

CITY           SKY/WX    TMP DP  RH WIND       PRES   REMARKS
ARKADELPHIA    FAIR      74  74 100 CALM      30.09S
CAMDEN         CLEAR     75  72  88 CALM      30.08S FOG
TEXARKANA      PTCLDY    73  73 100 NE3       30.08S
EL DORADO      CLEAR     74  73  97 CALM      30.09S FOG
DE QUEEN       CLEAR     73  73 100 E3        30.06F FOG
$$

ARZ056-057-069-210900-
SOUTHEAST ARKANSAS

CITY           SKY/WX    TMP DP  RH WIND       PRES   REMARKS
PINE BLUFF     CLEAR     76  75  97 CALM      30.08S FOG
MONTICELLO     CLEAR     77  75  93 CALM      30.09S

$$






USA.gov is the U.S. government's official web portal to all federal, state and local government web resources and services.